Time,TemperatureF,DewpointF,PressureIn,WindDirection,WindDirectionDegrees,WindSpeedMPH,WindSpeedGustMPH,Humidity,HourlyPrecipIn,Conditions,Clouds,dailyrainin,SoftwareType,DateUTC
2013-01-11 00:03:00,44.0,42.0,29.69,South,191,8.0,14.0,94,0.00,,,0.61,,2013-01-11 06:03:00,
2013-01-11 00:12:00,44.0,42.0,29.69,South,191,8.0,14.0,94,0.00,,,0.61,,2013-01-11 06:12:00,
2013-01-11 00:22:00,44.0,42.0,29.69,South,187,4.0,10.0,94,0.00,,,0.61,,2013-01-11 06:22:00,
2013-01-11 00:32:00,44.0,42.0,29.68,South,175,7.0,17.0,94,0.00,,,0.61,,2013-01-11 06:32:00,
2013-01-11 00:42:00,44.0,42.0,29.68,South,175,7.0,17.0,94,0.00,,,0.61,,2013-01-11 06:42:00,
2013-01-11 00:52:00,44.0,42.0,29.69,South,176,5.0,15.0,94,0.00,,,0.61,,2013-01-11 06:52:00,
2013-01-11 01:02:00,44.0,42.0,29.68,SW,227,2.0,10.0,94,0.00,,,0.61,,2013-01-11 07:02:00,
2013-01-11 01:12:00,44.0,42.0,29.69,South,179,4.0,11.0,94,0.00,,,0.61,,2013-01-11 07:12:00,
2013-01-11 01:22:00,44.0,42.0,29.69,South,179,4.0,11.0,94,0.00,,,0.61,,2013-01-11 07:22:00,
2013-01-11 01:32:00,44.0,42.0,29.68,South,181,6.0,13.0,94,0.00,,,0.61,,2013-01-11 07:32:00,
2013-01-11 01:42:00,45.0,43.0,29.68,South,177,4.0,15.0,94,0.00,,,0.61,,2013-01-11 07:42:00,
2013-01-11 01:52:00,45.0,43.0,29.68,South,177,4.0,15.0,94,0.00,,,0.61,,2013-01-11 07:52:00,
2013-01-11 02:02:00,45.0,43.0,29.66,South,178,5.0,10.0,94,0.00,,,0.61,,2013-01-11 08:02:00,
2013-01-11 02:12:00,45.0,43.0,29.67,South,180,1.0,13.0,94,0.00,,,0.61,,2013-01-11 08:12:00,
2013-01-11 02:22:00,45.0,43.0,29.67,South,180,1.0,13.0,94,0.00,,,0.61,,2013-01-11 08:22:00,
2013-01-11 02:32:00,45.0,43.0,29.65,SSW,193,2.0,12.0,94,0.00,,,0.61,,2013-01-11 08:32:00,
2013-01-11 02:42:00,45.0,43.0,29.65,SSW,193,2.0,12.0,94,0.00,,,0.61,,2013-01-11 08:42:00,
2013-01-11 02:52:00,45.0,43.0,29.65,SSW,193,2.0,12.0,94,0.00,,,0.61,,2013-01-11 08:52:00,
2013-01-11 03:02:00,45.0,43.0,29.62,SSE,164,9.0,17.0,94,0.00,,,0.61,,2013-01-11 09:02:00,
2013-01-11 03:12:00,45.0,43.0,29.62,SSE,164,9.0,17.0,94,0.00,,,0.61,,2013-01-11 09:12:00,
2013-01-11 03:22:00,45.0,43.0,29.62,SSE,164,10.0,18.0,94,0.00,,,0.61,,2013-01-11 09:22:00,
2013-01-11 03:32:00,46.0,44.0,29.62,SSW,205,10.0,18.0,94,0.00,,,0.61,,2013-01-11 09:32:00,
2013-01-11 03:42:00,46.0,44.0,29.62,SSW,205,10.0,18.0,94,0.00,,,0.61,,2013-01-11 09:42:00,
2013-01-11 03:52:00,46.0,44.0,29.62,WNW,290,4.0,14.0,94,0.00,,,0.61,,2013-01-11 09:52:00,
2013-01-11 04:02:00,46.0,44.0,29.60,South,191,10.0,18.0,93,0.00,,,0.59,,2013-01-11 10:02:00,
2013-01-11 04:12:00,46.0,44.0,29.60,South,191,10.0,18.0,93,0.00,,,0.59,,2013-01-11 10:12:00,
2013-01-11 04:22:00,46.0,44.0,29.59,South,169,9.0,16.0,93,0.00,,,0.59,,2013-01-11 10:22:00,
2013-01-11 04:32:00,46.0,44.0,29.58,South,180,8.0,21.0,92,0.00,,,0.59,,2013-01-11 10:32:00,
2013-01-11 04:42:00,46.0,44.0,29.58,South,180,8.0,21.0,92,0.00,,,0.59,,2013-01-11 10:42:00,
2013-01-11 04:52:00,47.0,45.0,29.57,SSE,167,11.0,17.0,92,0.00,,,0.59,,2013-01-11 10:52:00,
2013-01-11 05:03:00,47.0,45.0,29.55,South,178,8.0,22.0,91,0.00,,,0.54,,2013-01-11 11:03:00,
2013-01-11 05:12:00,47.0,45.0,29.55,South,178,8.0,22.0,91,0.00,,,0.54,,2013-01-11 11:12:00,
2013-01-11 05:22:00,47.0,44.0,29.54,SSW,193,11.0,20.0,90,0.00,,,0.54,,2013-01-11 11:22:00,
2013-01-11 05:33:00,47.0,44.0,29.52,SSE,168,14.0,21.0,90,0.00,,,0.54,,2013-01-11 11:33:00,
2013-01-11 05:42:00,47.0,44.0,29.52,SSE,168,14.0,21.0,90,0.00,,,0.54,,2013-01-11 11:42:00,
2013-01-11 05:52:00,46.0,43.0,29.52,SSW,194,9.0,20.0,89,0.00,,,0.54,,2013-01-11 11:52:00,
2013-01-11 06:03:00,46.0,43.0,29.52,SSW,194,9.0,20.0,89,0.00,,,0.54,,2013-01-11 12:03:00,
2013-01-11 06:12:00,46.0,43.0,29.52,SSW,194,9.0,20.0,89,0.00,,,0.54,,2013-01-11 12:12:00,
2013-01-11 06:22:00,46.0,43.0,29.52,South,169,8.0,19.0,89,0.00,,,0.48,,2013-01-11 12:22:00,
2013-01-11 06:33:00,46.0,43.0,29.51,SSW,192,8.0,20.0,89,0.00,,,0.48,,2013-01-11 12:33:00,
2013-01-11 06:42:00,46.0,43.0,29.51,SSW,192,8.0,20.0,89,0.00,,,0.48,,2013-01-11 12:42:00,
2013-01-11 06:52:00,46.0,43.0,29.51,SSW,208,6.0,18.0,89,0.00,,,0.48,,2013-01-11 12:52:00,
2013-01-11 07:03:00,46.0,43.0,29.51,South,189,8.0,19.0,89,0.00,,,0.45,,2013-01-11 13:03:00,
2013-01-11 07:13:00,46.0,43.0,29.51,South,189,8.0,19.0,89,0.00,,,0.45,,2013-01-11 13:13:00,
2013-01-11 07:22:00,46.0,43.0,29.52,SSW,211,9.0,28.0,88,0.00,,,0.45,,2013-01-11 13:22:00,
2013-01-11 07:33:00,46.0,43.0,29.52,South,183,5.0,21.0,88,0.00,,,0.45,,2013-01-11 13:33:00,
2013-01-11 07:42:00,46.0,43.0,29.52,South,183,5.0,21.0,88,0.00,,,0.45,,2013-01-11 13:42:00,
2013-01-11 07:52:00,46.0,43.0,29.52,SSW,196,8.0,18.0,88,0.00,,,0.45,,2013-01-11 13:52:00,
2013-01-11 08:03:00,46.0,43.0,29.52,South,188,10.0,15.0,88,0.00,,,0.38,,2013-01-11 14:03:00,
2013-01-11 08:12:00,46.0,43.0,29.52,South,188,10.0,15.0,88,0.00,,,0.38,,2013-01-11 14:12:00,
2013-01-11 08:23:00,45.0,42.0,29.52,South,189,11.0,20.0,88,0.00,,,0.38,,2013-01-11 14:23:00,
2013-01-11 08:33:00,45.0,42.0,29.53,SSW,194,8.0,17.0,88,0.00,,,0.38,,2013-01-11 14:33:00,
2013-01-11 08:43:00,46.0,42.0,29.53,SSW,196,7.0,18.0,87,0.00,,,0.38,,2013-01-11 14:43:00,
2013-01-11 08:53:00,46.0,42.0,29.53,SSW,196,7.0,18.0,87,0.00,,,0.38,,2013-01-11 14:53:00,
2013-01-11 09:03:00,46.0,42.0,29.54,SW,223,8.0,19.0,87,0.00,,,0.25,,2013-01-11 15:03:00,
2013-01-11 09:13:00,46.0,42.0,29.54,SW,217,5.0,20.0,87,0.00,,,0.25,,2013-01-11 15:13:00,
2013-01-11 09:23:00,46.0,42.0,29.54,SW,217,5.0,20.0,87,0.00,,,0.25,,2013-01-11 15:23:00,
2013-01-11 09:33:00,46.0,42.0,29.54,SW,227,7.0,18.0,86,0.00,,,0.25,,2013-01-11 15:33:00,
2013-01-11 09:43:00,46.0,42.0,29.54,SW,227,7.0,18.0,86,0.00,,,0.25,,2013-01-11 15:43:00,
2013-01-11 09:52:00,47.0,43.0,29.54,NW,306,6.0,16.0,85,0.00,,,0.25,,2013-01-11 15:52:00,
2013-01-11 10:03:00,47.0,43.0,29.53,SSE,163,11.0,19.0,85,0.00,,,0.10,,2013-01-11 16:03:00,
2013-01-11 10:12:00,48.0,43.0,29.54,SSW,192,5.0,17.0,84,0.00,,,0.10,,2013-01-11 16:12:00,
2013-01-11 10:22:00,48.0,43.0,29.54,SSW,192,5.0,17.0,84,0.00,,,0.10,,2013-01-11 16:22:00,
2013-01-11 10:33:00,48.0,43.0,29.53,SSW,193,8.0,21.0,84,0.00,,,0.10,,2013-01-11 16:33:00,
2013-01-11 10:42:00,48.0,43.0,29.53,SSW,193,8.0,21.0,84,0.00,,,0.10,,2013-01-11 16:42:00,
2013-01-11 10:52:00,48.0,43.0,29.53,SSW,194,4.0,24.0,84,0.00,,,0.10,,2013-01-11 16:52:00,
2013-01-11 11:03:00,48.0,43.0,29.53,SSW,196,4.0,19.0,83,0.00,,,0.02,,2013-01-11 17:03:00,
2013-01-11 11:12:00,48.0,43.0,29.53,South,171,7.0,21.0,83,0.00,,,0.02,,2013-01-11 17:12:00,
2013-01-11 11:22:00,48.0,43.0,29.53,South,171,7.0,21.0,83,0.00,,,0.02,,2013-01-11 17:22:00,
2013-01-11 11:33:00,48.0,43.0,29.53,South,188,11.0,23.0,83,0.00,,,0.02,,2013-01-11 17:33:00,
2013-01-11 11:43:00,48.0,43.0,29.53,South,188,11.0,23.0,83,0.00,,,0.02,,2013-01-11 17:43:00,
2013-01-11 11:53:00,48.0,43.0,29.52,SSW,204,8.0,17.0,82,0.00,,,0.02,,2013-01-11 17:53:00,
2013-01-11 12:03:00,49.0,44.0,29.52,WSW,244,3.0,24.0,82,0.00,,,0.01,,2013-01-11 18:03:00,
2013-01-11 12:12:00,49.0,44.0,29.52,WSW,244,3.0,24.0,82,0.00,,,0.01,,2013-01-11 18:12:00,
2013-01-11 12:23:00,49.0,43.0,29.51,South,186,7.0,19.0,81,0.00,,,0.01,,2013-01-11 18:23:00,
2013-01-11 12:33:00,49.0,43.0,29.48,South,170,6.0,16.0,80,0.00,,,0.01,,2013-01-11 18:33:00,
2013-01-11 12:43:00,49.0,43.0,29.48,South,170,6.0,16.0,80,0.00,,,0.01,,2013-01-11 18:43:00,
2013-01-11 12:53:00,50.0,43.0,29.47,South,183,6.0,19.0,78,0.00,,,0.01,,2013-01-11 18:53:00,
2013-01-11 13:02:00,50.0,43.0,29.47,SSW,206,6.0,22.0,78,0.00,,,0.01,,2013-01-11 19:02:00,
2013-01-11 13:12:00,50.0,43.0,29.47,SSW,206,6.0,22.0,78,0.00,,,0.01,,2013-01-11 19:12:00,
2013-01-11 13:22:00,51.0,44.0,29.46,SSE,167,12.0,19.0,77,0.00,,,0.01,,2013-01-11 19:22:00,
2013-01-11 13:32:00,51.0,44.0,29.44,SSE,164,13.0,23.0,77,0.00,,,0.01,,2013-01-11 19:32:00,
2013-01-11 13:43:00,51.0,44.0,29.44,SSE,164,13.0,23.0,77,0.00,,,0.01,,2013-01-11 19:43:00,
2013-01-11 13:53:00,51.0,44.0,29.45,South,176,11.0,23.0,78,0.00,,,0.01,,2013-01-11 19:53:00,
2013-01-11 14:03:00,51.0,44.0,29.44,SSE,163,9.0,30.0,76,0.00,,,0.01,,2013-01-11 20:03:00,
2013-01-11 14:12:00,51.0,44.0,29.44,SSE,163,9.0,30.0,76,0.00,,,0.01,,2013-01-11 20:12:00,
2013-01-11 14:22:00,52.0,44.0,29.44,SW,221,12.0,18.0,75,0.00,,,0.01,,2013-01-11 20:22:00,
2013-01-11 14:33:00,52.0,44.0,29.43,South,169,14.0,24.0,74,0.00,,,0.01,,2013-01-11 20:33:00,
2013-01-11 14:43:00,52.0,44.0,29.43,South,169,14.0,24.0,74,0.00,,,0.01,,2013-01-11 20:43:00,
2013-01-11 14:52:00,52.0,44.0,29.43,South,175,13.0,30.0,74,0.00,,,0.01,,2013-01-11 20:52:00,
2013-01-11 15:03:00,52.0,44.0,29.42,SSW,197,12.0,20.0,75,0.00,,,0.01,,2013-01-11 21:03:00,
2013-01-11 15:12:00,53.0,45.0,29.43,SSW,192,4.0,33.0,74,0.00,,,0.01,,2013-01-11 21:12:00,
2013-01-11 15:23:00,53.0,45.0,29.43,SSW,192,4.0,33.0,74,0.00,,,0.01,,2013-01-11 21:23:00,
2013-01-11 15:33:00,53.0,45.0,29.43,South,186,9.0,23.0,74,0.00,,,0.01,,2013-01-11 21:33:00,
2013-01-11 15:42:00,53.0,45.0,29.43,South,186,9.0,23.0,74,0.00,,,0.01,,2013-01-11 21:42:00,
2013-01-11 15:52:00,53.0,45.0,29.43,South,186,9.0,23.0,74,0.00,,,0.01,,2013-01-11 21:52:00,
2013-01-11 16:02:00,53.0,45.0,29.43,South,186,9.0,23.0,74,0.00,,,0.01,,2013-01-11 22:02:00,